Location: Unspecified
(54.1780°N, 0.0000°E)
Time: 09:28:26
(UTC+00:00)

Transit 2A - Pass Details

Date: 21 June 2019
Orbit: 594 x 964 km, 66.7° (Epoch: 19 July)

Event Time Altitude Azimuth Distance (km) Brightness Sun altitude
Rises 00:59:14 0° 209° (SSW) 3,633 - -11.4°
Reaches altitude 10° 01:01:48 10° 207° (SSW) 2,697 - -11.3°
Exits shadow 01:02:36 14° 206° (SSW) 2,416 7.9 -11.3°
Maximum altitude 01:08:08 69° 126° (SE) 1,020 6.6 -11.1°
Drops below altitude 10° 01:14:17 10° 44° (NE) 2,626 9.8 -10.8°
Sets 01:16:46 0° 42° (NE) 3,532 10.8 -10.7°
